SCP
2 1 1 1 1 0 0 0 0 0 0 0 0 0 0 0 0 0 0 0 0 1 1 1 1 1 1 1 1 0 1 1 1 1 1 1 1 1 1 1 1 1 1 1 1 2 2 3 3
2 1 1 1 1 0 0 0 0 0 0 0 0 0 0 0 0 0 0 0 0 1 1 1 1 1 1 1 1 1 1 1 1 1 1 1 1 1 1 1 1 1 1 1 1 2 3 3 3
1 1 1 1 0 0 0 0 0 0 0 1 1 1 1 1 0 0 0 0 0 1 1 1 1 1 1 1 1 1 1 1 1 1 1 1 1 1 1 0 0 1 1 1 1 2 3 3 3
1 1 1 0 0 0 0 0 0 0 1 1 1 1 1 1 1 0 0 0 0 1 1 1 1 1 1 1 1 1 1 1 1 1 1 1 1 1 1 0 0 0 1 1 1 2 3 3 2
1 1 1 0 0 0 0 0 0 0 1 1 1 2 2 2 1 1 0 0 0 1 1 1 1 1 1 1 1 1 1 1 1 1 1 1 1 1 1 0 0 0 1 1 1 1 2 2 2
1 1 0 0 0 0 1 0 0 0 1 1 1 2 2 2 1 1 0 0 0 1 1 1 1 1 1 1 1 1 1 1 1 1 1 1 1 1 1 1 1 1 1 1 1 1 1 1 1
1 0 0 0 0 0 1 1 0 0 1 1 1 2 3 2 1 1 0 0 0 1 1 1 1 1 1 1 1 1 1 1 1 1 1 1 1 1 1 1 1 1 1 1 1 1 1 1 1
0 0 0 0 0 0 1 1 1 0 1 1 1 2 3 2 1 0 0 0 0 1 1 1 1 1 1 1 1 1 1 1 1 1 1 1 1 1 1 1 1 1 1 1 1 1 1 1 1
0 0 0 0 0 0 1 1 1 1 1 1 1 2 3 2 1 0 0 0 0 1 1 1 1 1 1 1 1 1 1 1 1 1 1 1 1 1 1 1 1 1 1 1 1 1 1 1 1
0 0 0 0 0 0 0 1 1 1 1 1 2 3 3 2 1 0 0 0 1 1 1 1 1 1 1 1 1 1 1 1 1 1 1 1 1 1 1 2 2 2 2 1 1 1 1 1 1
0 0 0 0 0 0 0 1 1 1 1 1 2 3 3 2 1 0 0 0 1 1 1 1 1 1 1 1 1 1 1 1 1 1 1 1 1 1 1 1 2 2 1 1 1 1 1 1 1
0 0 0 0 0 0 0 0 1 1 1 1 2 3 2 1 1 0 0 1 1 1 1 1 1 1 1 1 1 1 1 1 1 0 0 1 1 1 1 1 1 1 1 1 1 1 1 1 1
1 1 1 0 0 0 0 0 0 1 1 1 2 2 2 1 1 1 1 1 1 1 1 1 1 1 1 1 1 1 1 1 0 0 0 0 1 1 1 1 1 1 0 0 0 1 1 1 1
1 1 1 1 1 0 0 0 0 1 1 1 1 1 1 1 1 1 1 1 1 1 1 1 1 1 1 1 1 1 1 1 0 0 0 0 0 1 1 1 1 0 0 0 0 0 0 0 0
1 1 1 1 1 1 0 0 0 1 1 1 1 1 1 1 1 1 1 1 1 1 1 1 2 2 1 1 1 1 0 1 1 0 0 0 0 1 1 1 1 0 0 0 0 0 0 0 0
1 1 1 1 1 1 0 0 0 1 1 1 1 1 1 1 1 1 1 1 1 1 2 2 2 2 2 1 1 0 0 1 1 0 0 0 0 1 1 1 1 1 1 1 0 1 0 0 0
0 0 0 1 1 1 0 0 0 0 1 1 1 1 1 1 1 1 1 1 1 2 2 2 2 2 2 1 1 1 0 0 1 0 0 0 1 1 1 1 1 1 1 1 1 1 1 1 1
0 0 0 0 1 0 0 0 0 0 1 1 1 1 1 1 1 1 2 2 2 2 2 3 3 2 2 1 1 1 0 0 0 1 1 1 1 1 1 1 1 1 1 1 1 1 1 1 1
0 0 0 0 0 0 0 0 0 0 1 1 1 1 1 1 2 2 3 3 3 3 2 2 2 2 2 1 1 1 1 0 1 1 1 1 1 1 1 1 1 1 1 1 1 1 1 1 1
0 0 0 0 0 0 0 0 0 1 1 1 1 1 1 2 2 3 4 3 3 3 2 2 2 2 2 1 1 1 1 1 1 1 1 1 1 1 1 1 1 1 1 2 1 1 1 1 1
0 0 0 0 0 0 0 0 1 1 1 1 1 1 1 2 3 4 4 4 3 3 2 2 2 2 2 2 1 1 1 1 1 1 0 0 1 1 1 1 1 1 1 1 1 1 1 1 1
0 0 0 0 0 0 0 0 1 1 1 1 1 1 1 1 3 4 4 4 3 3 3 2 2 2 2 2 1 1 1 1 1 0 0 0 0 1 1 1 1 1 1 1 1 1 1 1 1
0 0 0 0 0 0 0 0 0 1 1 1 1 1 1 1 2 3 3 3 3 3 3 2 2 2 2 2 2 1 1 1 1 1 0 0 0 1 1 1 1 1 1 1 1 1 1 1 1
0 0 0 0 0 0 0 0 0 1 1 1 1 1 1 1 2 3 3 3 3 3 2 2 2 2 2 2 2 1 1 1 1 1 1 1 1 1 1 1 1 1 1 1 1 1 1 1 1
0 0 0 0 0 0 0 0 0 1 1 1 1 1 1 2 2 3 3 4 4 3 2 2 2 2 1 1 1 1 1 1 1 1 1 1 1 1 1 1 1 1 1 1 1 1 1 1 1
0 0 0 0 0 0 0 0 1 1 1 1 1 1 2 2 2 3 4 5 4 3 2 2 2 2 2 2 1 1 1 1 1 1 1 1 1 1 1 1 1 1 1 1 1 1 1 1 1
0 0 0 0 0 0 0 0 0 1 1 1 1 2 2 2 2 3 5 5 4 3 3 3 3 2 2 2 2 2 2 1 1 1 1 1 1 1 1 1 1 1 1 1 1 1 1 1 1
0 0 0 0 0 0 0 0 0 1 1 1 2 2 2 2 2 3 5 4 4 3 3 3 3 3 3 2 2 2 2 2 2 2 1 1 1 1 1 1 1 1 1 1 1 1 1 1 1
0 0 0 0 0 0 0 0 0 0 1 1 2 2 2 2 2 3 4 4 4 4 4 4 4 4 3 3 3 3 3 3 3 3 2 2 2 2 2 2 1 1 1 1 1 1 1 1 1
0 0 0 0 0 0 0 0 0 0 0 1 1 2 2 2 2 3 3 4 5 5 5 5 5 5 4 4 4 4 4 4 3 3 3 3 3 3 2 2 2 2 2 2 1 1 1 1 1
Wind_Speed
13 11 6 5 4 6 12 9 8 8 7 8 8 7 9 10 8 8 6 5 5 5 7 7 8 10 11 11 12 12 12 12 13 13 13 13 13 13 14 13 13 13 14 13 14 15 15 15 14
10 7 6 4 2 9 11 9 10 10 8 7 8 8 9 10 9 8 6 5 5 6 7 9 10 10 11 11 11 12 12 13 12 13 12 12 13 13 14 14 13 13 13 13 14 15 15 14 13
7 7 5 1 9 11 11 10 10 9 7 6 7 8 8 8 8 6 7 6 6 7 7 10 9 11 11 11 11 12 12 12 12 12 12 12 13 13 14 13 13 13 13 13 14 14 14 13 12
6 6 2 6 14 13 10 9 8 8 8 7 7 9 9 8 6 8 8 7 8 8 8 12 9 10 11 11 11 11 11 11 12 12 12 12 12 13 13 13 13 13 13 12 12 13 12 11 11
6 2 5 11 14 11 9 8 6 7 7 7 8 11 10 8 9 10 8 7 7 8 9 11 10 10 10 10 11 11 11 12 11 11 11 11 11 11 12 12 12 12 12 12 11 11 11 10 9
4 0 6 11 12 9 9 7 7 9 10 9 9 11 10 8 9 9 8 7 8 8 9 11 10 9 10 10 10 11 11 11 11 11 10 10 10 10 11 11 11 11 11 11 10 10 10 9 8
2 5 9 11 10 10 8 6 7 8 9 8 7 10 10 9 8 8 8 7 7 8 8 7 9 9 9 9 10 10 10 10 10 9 9 9 9 10 10 10 10 10 10 10 10 10 10 9 8
3 2 9 10 10 10 8 7 8 8 9 7 5 7 9 10 8 8 8 7 7 7 7 6 7 7 7 9 10 9 9 9 9 9 8 8 9 10 9 10 10 9 9 9 9 9 9 8 7
4 2 9 9 9 10 8 8 8 7 10 8 8 10 13 12 9 8 8 7 6 6 5 5 7 6 6 7 9 8 9 8 7 8 8 4 5 7 8 11 10 8 8 8 8 8 7 7 8
1 6 11 8 8 10 9 8 8 7 9 10 11 12 13 11 9 8 8 7 7 6 5 5 5 6 5 5 5 4 5 6 4 5 5 4 4 4 6 11 8 7 7 7 7 6 7 6 5
3 8 8 7 7 9 9 8 6 7 8 9 11 13 12 10 8 7 7 6 6 5 5 6 5 4 4 4 3 3 3 4 4 5 4 3 2 3 4 4 6 6 6 5 8 6 3 2 2
6 7 6 8 8 8 8 8 7 7 10 10 11 13 12 10 8 7 7 6 6 5 5 4 5 4 3 3 3 3 3 2 3 4 2 3 2 2 3 2 2 2 2 3 2 2 3 2 2
7 7 8 8 8 8 8 8 8 9 10 11 12 12 11 9 8 7 6 5 5 5 5 5 4 4 3 2 1 3 3 2 4 3 3 2 2 2 2 2 1 1 2 3 2 2 2 2 2
7 8 8 8 8 8 8 8 7 9 10 11 11 10 9 8 8 7 6 5 5 5 4 4 4 4 3 3 2 2 2 2 2 2 2 1 1 2 1 2 1 1 1 2 1 2 2 1 1
9 9 8 7 6 7 7 7 7 10 11 11 10 9 8 7 7 6 5 5 5 5 5 4 4 4 3 2 2 2 2 2 2 2 2 1 2 2 1 1 1 1 2 2 1 1 1 2 2
8 7 6 7 6 6 6 6 9 10 11 10 10 9 8 7 6 6 5 5 5 5 6 4 3 4 4 2 1 1 1 2 2 1 2 2 2 1 0 1 1 1 1 1 1 1 1 1 1
9 5 5 7 6 6 5 5 10 11 11 10 9 9 9 8 7 6 6 6 5 5 6 5 3 3 3 2 2 2 1 1 1 1 2 2 1 1 0 1 1 1 1 1 1 2 1 1 1
5 4 4 5 6 6 6 4 9 11 10 10 10 9 9 8 8 8 7 6 6 6 6 5 5 4 3 3 2 1 1 1 1 1 2 1 1 1 1 1 1 0 0 0 0 0 1 1 1
4 4 3 3 4 6 5 5 8 11 11 10 9 9 9 8 8 8 7 7 7 6 6 6 5 5 3 2 2 2 2 1 1 1 2 1 1 1 1 1 1 1 1 1 1 1 2 2 2
7 6 5 4 4 5 5 5 7 10 12 11 10 10 10 9 9 9 8 8 8 7 7 7 6 5 4 2 1 0 0 1 1 1 2 0 1 1 0 1 1 1 0 0 1 1 1 1 2
9 7 5 4 5 6 5 7 8 9 10 11 11 10 10 10 11 11 10 9 9 8 8 6 6 6 5 4 3 2 2 2 2 2 1 1 0 1 2 1 2 1 1 1 1 1 2 1 2
8 5 5 6 7 5 6 4 7 10 11 12 13 12 12 12 11 11 11 11 10 9 8 7 7 6 5 5 4 3 2 1 1 1 1 1 0 0 1 1 1 1 1 1 1 1 1 2 1
5 5 6 7 7 6 7 7 5 9 10 12 13 13 13 12 12 12 11 11 10 9 8 8 7 6 6 5 4 3 2 1 1 1 2 1 1 0 1 1 1 1 1 1 2 1 2 1 1
7 8 6 7 8 8 5 7 3 7 9 10 12 13 13 13 12 12 11 11 10 9 9 9 8 7 6 5 5 4 2 1 1 1 1 2 1 1 1 1 1 1 1 1 1 1 1 2 2
12 10 7 8 8 6 4 7 3 3 5 7 10 12 12 12 13 13 13 12 11 11 10 9 8 7 6 6 5 4 3 3 3 2 2 2 0 1 1 1 1 1 1 1 1 1 1 1 1
15 14 9 7 6 5 6 6 2 3 4 6 8 10 12 12 12 13 12 12 11 11 10 10 9 8 7 6 5 4 4 3 2 2 2 1 1 1 1 0 0 1 1 1 1 1 1 1 1
14 14 10 8 7 6 5 4 4 5 7 8 9 10 12 12 12 12 12 12 12 12 11 10 9 8 7 7 6 4 4 2 1 1 2 1 0 0 1 0 1 1 1 2 1 1 1 1 2
10 10 8 9 8 8 7 7 4 8 9 10 11 11 12 12 12 12 11 11 11 11 11 10 9 8 7 7 6 5 4 3 2 2 1 0 0 1 1 1 1 1 1 1 1 0 1 1 1
11 12 10 9 9 8 6 4 2 6 8 9 10 10 11 12 12 12 11 11 11 11 11 10 9 8 7 7 6 5 4 4 4 2 2 2 1 1 1 1 1 1 1 1 1 1 1 1 1
14 14 13 10 9 9 8 2 5 5 6 7 9 10 10 11 11 12 11 11 11 11 10 10 9 9 8 8 7 6 5 5 4 3 3 2 2 2 2 1 1 1 1 1 0 1 1 1 1
Wind_Direction
169 178 206 232 222 79 65 62 65 68 64 60 59 58 59 45 37 71 81 80 78 80 84 87 73 83 88 88 88 90 93 96 101 101 102 104 106 108 107 105 108 112 115 117 121 123 123 123 123
170 186 225 241 37 73 68 63 66 62 77 85 77 73 74 65 59 89 98 89 89 84 84 80 79 81 86 87 88 91 92 92 97 100 102 103 104 105 106 107 106 109 112 114 117 120 121 121 121
180 223 262 40 53 58 69 71 78 83 80 74 78 63 57 68 75 86 98 112 101 87 84 83 80 80 82 85 87 92 92 92 95 99 101 103 104 106 107 109 109 110 112 112 113 116 118 118 119
212 218 211 68 69 62 71 81 93 95 83 73 88 84 74 61 69 91 107 109 101 99 92 88 83 83 80 81 86 91 94 93 97 99 101 101 103 105 107 109 110 113 113 112 113 116 118 120 123
243 252 89 77 73 72 75 77 73 79 81 84 87 94 85 73 89 103 112 110 101 97 95 94 87 83 81 80 81 87 92 94 97 98 98 99 101 103 105 107 111 113 114 114 115 116 117 119 122
234 270 74 77 81 80 80 78 82 84 88 89 94 96 86 98 104 109 111 106 98 97 98 100 99 89 84 82 82 83 88 93 96 98 99 99 101 102 106 109 110 112 114 114 115 115 114 117 117
332 52 73 82 89 86 78 81 82 90 90 84 89 95 104 108 108 110 106 100 96 95 97 103 111 110 104 93 86 84 85 91 95 97 100 101 100 101 107 111 110 109 109 111 115 114 114 115 116
312 78 84 82 86 88 97 91 82 87 87 89 84 98 115 117 120 116 112 107 100 98 101 101 100 102 115 111 98 92 90 92 99 98 98 106 112 113 118 124 111 110 109 110 115 116 116 118 122
262 79 76 75 82 99 114 108 96 91 102 91 77 87 109 122 127 124 119 113 105 100 101 103 102 101 101 102 108 118 113 109 126 118 113 130 122 120 134 102 110 113 113 114 115 121 127 139 143
276 65 70 68 80 105 116 108 115 122 111 106 103 102 116 130 132 127 120 120 117 115 115 105 99 98 100 97 107 112 112 109 105 95 108 105 91 88 100 112 120 121 123 129 126 131 159 198 158
70 74 84 92 93 108 118 111 118 120 109 116 125 130 135 137 137 131 121 118 117 125 119 116 110 109 109 107 110 93 94 102 107 99 100 90 103 113 113 126 137 143 154 148 142 167 170 151 115
101 90 94 99 109 117 113 113 113 94 91 112 126 135 140 142 138 132 126 126 124 123 117 115 116 111 91 86 107 118 111 108 98 103 90 99 89 82 90 100 106 130 126 114 130 129 118 109 110
116 105 105 110 119 115 117 110 109 106 107 120 130 140 145 144 137 131 124 125 127 131 127 119 114 108 115 113 112 100 89 91 97 83 85 72 96 89 92 81 76 82 100 138 133 110 109 120 133
117 120 119 119 121 132 129 121 124 121 130 134 143 149 151 147 142 137 139 140 141 142 135 130 137 126 122 130 126 102 109 107 84 87 82 70 73 72 91 115 95 88 104 73 90 115 128 128 101
138 136 133 132 137 141 152 136 133 137 146 147 151 153 156 157 154 154 153 153 150 147 140 144 148 136 137 139 149 129 133 118 106 103 98 87 93 94 98 109 137 104 101 112 144 134 138 155 152
171 176 150 139 155 165 214 122 137 153 161 157 159 160 166 169 172 167 161 161 157 149 146 153 150 140 142 138 146 118 87 87 96 95 99 94 81 92 170 89 88 107 136 144 145 182 146 113 162
195 190 142 145 171 181 215 128 142 166 173 167 170 170 173 173 180 176 173 168 162 160 158 158 156 150 144 142 153 149 113 91 110 94 80 94 99 89 137 84 82 187 170 177 227 108 129 138 135
186 180 162 153 164 196 208 155 152 174 185 179 176 177 178 181 180 177 178 170 167 167 167 167 167 160 164 164 158 156 144 161 134 100 83 77 106 75 332 117 84 266 138 207 1 113 166 180 160
211 212 184 143 157 205 211 190 171 180 192 190 185 183 183 185 176 174 177 175 172 172 172 173 173 161 174 179 185 162 153 151 137 129 100 100 10 43 331 6 92 284 53 307 251 219 184 165 154
216 217 192 156 168 221 219 217 184 187 197 197 193 189 189 183 175 176 179 178 179 177 175 176 177 170 183 163 177 183 106 181 139 97 102 94 53 350 84 18 328 54 86 230 260 236 256 204 193
220 226 214 185 179 206 231 215 189 186 197 198 202 199 195 190 184 181 184 183 182 181 184 180 176 176 183 177 182 163 171 204 157 157 150 128 93 26 4 9 356 346 296 54 282 252 254 240 214
217 209 212 198 213 201 227 242 179 184 192 198 201 201 198 194 190 185 184 186 186 183 181 177 177 180 181 191 196 192 191 173 124 177 115 130 123 355 6 19 21 339 3 39 278 59 291 268 248
212 183 206 215 235 246 217 258 169 179 197 196 197 198 198 193 189 188 186 184 185 183 179 175 176 182 184 196 191 207 203 174 165 166 123 193 123 335 2 32 18 353 4 32 4 2 311 294 298
162 172 187 219 237 240 229 254 209 182 204 195 189 190 193 191 186 185 183 179 182 181 179 176 175 183 187 195 193 202 195 193 179 195 164 202 156 161 66 67 21 351 20 41 3 318 273 327 329
193 200 204 211 220 228 192 244 252 182 187 190 185 183 183 186 184 183 183 182 181 182 182 177 176 182 185 190 193 191 192 197 203 223 192 249 192 147 93 29 11 11 26 350 339 310 338 327 312
211 222 234 237 229 203 185 238 204 155 176 181 179 176 176 179 182 184 183 181 181 181 181 179 177 181 182 183 185 185 195 210 196 215 274 248 296 41 74 92 37 9 348 350 359 307 13 10 315
207 224 246 251 251 246 202 212 203 181 182 178 175 171 174 177 177 178 180 182 182 181 182 181 176 179 180 177 175 179 189 212 198 185 240 246 241 157 115 101 54 42 32 14 323 21 355 343 308
234 220 223 240 239 236 216 217 205 184 184 180 180 177 174 175 175 175 175 179 179 179 178 177 174 177 177 175 182 174 177 181 192 208 172 38 123 82 122 114 78 68 63 39 319 324 49 339 345
196 210 222 235 247 250 233 204 146 179 181 183 179 176 173 174 174 171 170 172 173 175 172 173 172 173 173 175 176 174 173 172 177 182 174 161 156 151 148 130 108 79 67 59 356 340 48 346 358
213 216 213 223 226 247 263 189 117 162 173 179 174 168 167 171 171 168 167 167 171 174 173 173 173 174 175 173 170 175 176 174 177 173 174 168 167 167 155 152 141 132 96 78 35 352 16 2 1